Location: Dierre
(47.3451°N, 0.9575°E)
Time: 05:31:24
(UTC+00:00)

Daily predictions for brighter satellites

Satellite Brightness Start Highest point End
(mag) Time Altitude Azimuth Time Altitude Azimuth Time Altitude Azimuth
Cosmos 2082 Rocket 4.4 03:23:08 21° ENE 03:23:08 21° ENE 03:25:29 10° NE
NOSS 3-1 (C) 4.3 03:52:30 57° NNE 03:52:54 57° NE 04:01:21 10° ESE
COSMOS 2455 3.5 04:07:00 50° ESE 04:07:00 50° ESE 04:11:26 10° SE
Cosmos 2360 Rocket 4.2 04:09:26 18° NNE 04:11:23 21° NE 04:15:37 10° E
Cosmos 2333 Rocket 3.8 04:11:00 26° NNE 04:12:37 29° NE 04:17:37 10° ESE
ATLAS 3B R/B 4.4 04:14:24 23° N 04:16:01 24° N 04:22:11 10° ENE
Cosmos 1898 Rocket 4.1 04:29:28 50° SE 04:29:28 50° SE 04:33:19 10° SSE
Cosmos 2219 Rocket 4.4 04:25:49 13° N 04:28:44 19° NE 04:32:40 10° E
COSMO-SKYMED 1 4.4 04:28:05 10° ESE 04:31:33 27° ENE 04:32:40 23° NE
Cosmos 2322 Rocket 3.7 04:32:25 22° N 04:35:08 32° NE 04:40:11 10° ESE
Cosmos 1937 Rocket 3.3 04:49:25 88° ENE 04:49:25 88° ENE 04:54:32 10° SSE
USA 59 Rocket 1.3 04:54:18 31° S 04:54:18 31° S 04:57:14 10° SSE
Meteor 2-3 Rocket 4.1 04:47:51 10° S 04:53:30 63° E 04:59:07 10° NNE
Cosmos 2237 4.0 04:53:25 72° W 04:53:46 75° WSW 04:59:26 10° SSE
Aureole 1 Rocket 4.3 04:53:29 54° W 04:54:12 56° WSW 05:01:26 10° S
Cosmos 2058 Rocket 4.3 04:54:41 16° N 04:57:55 41° ENE 05:02:04 10° SE
COSMOS 2406 3.2 04:55:16 23° SSW 04:58:59 83° ESE 05:04:42 10° NNE
SKYMED 2 3.6 04:55:25 10° SSE 04:59:45 76° ENE 05:00:14 66° NNE
NOSS 3-1 (A) 4.2 04:57:15 31° NNW 05:01:00 68° NE 05:09:43 10° SE
NOSS 2-1 (E) 4.2 05:04:17 42° S 05:04:17 42° S 05:07:49 10° SSE
SL-16 R/B 2.2 05:01:03 37° NNW 05:03:23 77° ENE 05:09:03 10° SSE
Cosmos 2082 Rocket 2.3 05:05:01 51° NW 05:05:01 51° NW 05:10:05 10° NNE
CZ-4 R/B 4.0 05:03:14 10° NNE 05:07:53 70° ESE 05:12:29 10° S
SeaSat 1 4.3 05:06:02 10° N 05:07:30 17° N 05:07:30 17° N
BREEZE-M DEB (TANK) 3.9 05:12:02 43° ENE 05:12:02 43° ENE 05:13:38 10° ENE
Okean 1 4.3 05:11:24 22° NNE 05:13:14 39° ENE 05:16:36 10° SSE
USA 234 4.0 05:07:44 10° ENE 05:13:41 38° N 05:15:57 30° NW
Helios 1A Rocket 2.7 05:12:27 10° SSE 05:15:44 62° ENE 05:15:55 61° NE
NOAA 12 4.0 05:12:56 10° NNE 05:18:16 88° ESE 05:23:32 10° SSW
BREEZE-M DEB (TANK) 2.8 05:23:26 56° NNE 05:23:26 56° NNE 05:27:00 10° ENE
BREEZE-M DEB (TANK) 2.1 05:24:36 62° SW 05:24:54 68° S 05:30:23 10° ESE
Cosmos 2278 3.6 05:24:16 27° NNW 05:27:28 82° WSW 05:33:06 10° SSE
SL-4 R/B 1.8 05:28:33 51° NNE 05:28:33 51° NNE 05:31:38 10° E
FengYun 1-2 T 4.4 05:25:15 10° N 05:30:42 50° WNW 05:36:07 10° SW
Cosmos 2026 Rocket 3.8 05:27:23 10° SSW 05:33:25 79° W 05:39:34 10° N
Cosmos 2221 4.5 05:31:57 10° NNE 05:35:30 27° ENE 05:39:03 10° SE
Cosmos 1726 Rocket 4.0 05:38:11 37° WSW 05:38:11 37° WSW 05:41:43 10° SSW
Cosmos 841 Rocket 3.9 05:40:31 29° W 05:42:17 38° WNW 05:47:12 10° N
Cosmos 405 Rocket 3.6 05:39:16 10° SSE 05:42:22 42° E 05:45:30 10° NNE
NOSS 3-1 (C) 4.4 05:39:51 26° WNW 05:43:51 46° WSW 05:52:14 10° S
COSMOS 2455 4.0 05:50:11 22° W 05:50:45 22° WSW 05:55:14 10° SSW
Cosmos 1626 Rocket 3.7 05:51:13 10° S 05:55:37 75° E 06:00:01 10° NNE
Cosmos 2360 Rocket 2.1 05:51:12 14° NNW 05:56:04 83° WSW 06:01:41 10° SSE
Cosmos 2333 Rocket 2.3 05:53:03 18° NW 05:57:17 57° WSW 06:02:52 10° S
Cosmos 1553 Rocket 4.1 05:51:46 10° N 05:58:12 89° WSW 06:04:37 10° S
Cosmos 1092 Rocket 4.0 05:54:12 10° SSW 06:00:21 58° WNW 06:06:31 10° N
Cosmos 1892 Rocket 4.1 05:56:26 10° SW 06:00:24 33° WNW 06:04:25 10° N
SMAP 4.2 05:56:10 10° NNE 06:00:41 47° E 06:05:10 10° S
Cosmos-2242 3.2 06:00:27 14° NNW 06:03:51 44° W 06:07:50 10° SSW
Meteor 2-2 Rocket 4.4 05:58:19 10° NNW 06:03:51 54° W 06:09:27 10° S
Cosmos 2237 Rocket 4.4 06:02:26 10° N 06:06:07 17° NE 06:09:46 10° E
COSMO-SKYMED 1 3.2 06:03:06 10° SSW 06:06:46 31° W 06:08:59 19° NW
Cosmos 1125 Rocket 4.2 06:02:50 10° NNW 06:08:01 54° ENE 06:13:08 10° SE
ATLAS 3B R/B 3.8 06:01:38 11° NW 06:08:57 44° NE 06:16:08 10° ESE
IRS-1D 4.2 06:09:01 10° N 06:13:19 29° WNW 06:17:40 10° WSW
Cosmos 2219 Rocket 2.3 06:07:52 10° NNW 06:13:35 83° ENE 06:19:12 10° SSE
Cosmos 2322 Rocket 2.4 06:14:14 12° NW 06:19:24 50° WSW 06:24:50 10° S
BREEZE-M DEB (TANK) 4.3 05:58:50 10° W 06:19:50 78° N 06:24:34 10° E
Okean 1-7 Rocket 4.4 06:21:01 10° S 06:25:25 57° E 06:29:49 10° NNE
Meteor 2-6 Rocket 4.4 06:20:06 10° NNW 06:26:00 63° W 06:31:50 10° S
Cosmos 1812 Rocket 3.5 06:23:29 10° N 06:27:49 88° WSW 06:32:09 10° S
IGS 5A 3.6 06:24:16 10° N 06:28:08 47° WNW 06:31:59 10° SW
Cosmos 1484 Rocket 3.1 06:26:14 10° N 06:29:19 32° WNW 06:32:23 10° SW
Cosmos 2266 Rocket 4.2 06:25:23 10° S 06:31:45 82° E 06:38:06 10° N
SJ-12 4.1 06:29:09 10° NNE 06:32:58 67° ESE 06:36:45 10° S
Cosmos 1437 Rocket 2.5 06:30:28 10° N 06:33:57 83° E 06:37:25 10° SSE
Cosmos 1602 Rocket 3.5 06:29:40 10° S 06:34:07 82° W 06:38:35 10° N
Cosmos 192 4.3 06:29:12 10° NNW 06:34:09 81° WSW 06:39:01 10° SSE
ATLAS 2AS CENTAUR R/B 3.1 06:27:56 10° SSW 06:34:57 71° SE 06:41:48 10° NE
Cosmos 2058 Rocket 4.3 06:32:09 10° NW 06:35:29 21° W 06:38:48 10° SW
Cosmos 1417 Rocket 4.5 06:29:55 10° N 06:36:05 83° W 06:42:14 10° S
Cosmos 2333 4.5 06:31:48 10° NW 06:37:21 51° WSW 06:42:48 10° S
SL-08 ROCKET BODY 4.4 06:32:46 10° SSW 06:38:30 57° WNW 06:44:16 10° N
Cosmos 1743 2.5 06:36:32 10° SSW 06:39:40 47° WNW 06:42:50 10° N
ARIANE 5 R/B 2.8 06:36:29 10° NNE 06:41:44 78° ESE 06:46:57 10° SSW
COSMOS 2406 4.4 06:39:41 10° W 06:43:58 22° NW 06:48:18 10° N
SL-16 R/B 3.6 06:43:04 10° WNW 06:46:46 18° W 06:50:29 10° SW
AQUARIUS 4.3 06:44:36 10° NNE 06:49:03 82° ESE 06:53:28 10° SSW
Cosmos 2082 Rocket 3.9 06:47:22 10° WNW 06:50:02 13° NW 06:52:41 10° N
COSMOS 2428 3.2 06:45:17 10° NNW 06:50:57 62° ENE 06:56:35 10° SE
SPOT 1/Viking Rocket 4.5 06:48:27 10° NNE 06:53:33 54° E 06:58:34 10° S
USA 234 3.8 06:49:40 10° E 06:55:56 50° NNE 07:02:13 10° NW
MOS 1 Rocket 3.6 06:54:12 10° N 06:59:35 78° WNW 07:04:51 10° SSW
